Location: Codford Saint Peter
(51.1597°N, 2.0531°W)
Time: 13:47:11
(UTC+00:00)

Cosmos 1833 Rocket - Pass Details

Date: 18 September 2020
Orbit: 831 x 841 km, 71.0° (Epoch: 25 October)

Event Time Altitude Azimuth Distance (km) Brightness Sun altitude
Rises 19:57:34 0° 331° (NNW) 3,408 6.7 -16.4°
Reaches altitude 10° 20:00:22 10° 343° (NNW) 2,471 5.7 -16.8°
Maximum altitude 20:05:15 29° 42° (NE) 1,514 3.9 -17.5°
Enters shadow 20:07:25 23° 78° (ENE) 1,743 3.9 -17.8°
